TimeEST,TemperatureF,Dew PointF,Humidity,Sea Level PressureIn,VisibilityMPH,Wind Direction,Wind SpeedMPH,Gust SpeedMPH,PrecipitationIn,Events,Conditions,WindDirDegrees,DateUTC
12:58 AM,44.2,36.9,75,29.96,10.0,West,11.5,-,N/A,,Clear,280,2014-01-12 05:58:00
1:58 AM,42.4,36.7,80,30.01,10.0,West,8.1,-,N/A,,Clear,280,2014-01-12 06:58:00
2:58 AM,40.5,36.0,84,30.01,10.0,WNW,8.1,-,N/A,,Clear,290,2014-01-12 07:58:00
3:58 AM,38.5,35.6,89,30.03,10.0,West,8.1,-,N/A,,Clear,280,2014-01-12 08:58:00
4:58 AM,37.0,34.7,91,30.04,10.0,West,5.8,-,N/A,,Clear,270,2014-01-12 09:58:00
5:58 AM,35.1,33.1,92,30.04,10.0,WSW,3.5,-,N/A,,Clear,240,2014-01-12 10:58:00
6:58 AM,34.2,32.7,94,30.08,10.0,West,2.3,-,N/A,,Clear,280,2014-01-12 11:58:00
7:58 AM,34.9,34.2,97,30.12,10.0,West,1.2,-,N/A,,Clear,280,2014-01-12 12:58:00
8:58 AM,39.2,37.9,95,30.16,10.0,WNW,4.6,-,N/A,,Clear,290,2014-01-12 13:58:00
9:58 AM,45.5,39.6,80,30.18,10.0,West,8.1,-,N/A,,Clear,280,2014-01-12 14:58:00
10:58 AM,49.1,39.7,70,30.19,10.0,West,5.8,-,N/A,,Clear,270,2014-01-12 15:58:00
11:58 AM,53.1,39.9,61,30.18,10.0,West,4.6,-,N/A,,Clear,280,2014-01-12 16:58:00
12:58 PM,55.2,37.0,50,30.15,10.0,Variable,4.6,-,N/A,,Clear,0,2014-01-12 17:58:00
1:58 PM,57.7,34.9,42,30.13,10.0,Variable,4.6,-,N/A,,Clear,0,2014-01-12 18:58:00
2:58 PM,59.2,32.2,36,30.12,10.0,West,6.9,-,N/A,,Clear,260,2014-01-12 19:58:00
3:58 PM,59.0,31.8,36,30.13,10.0,SW,5.8,-,N/A,,Clear,230,2014-01-12 20:58:00
4:58 PM,58.3,31.6,36,30.13,10.0,WSW,4.6,-,N/A,,Clear,240,2014-01-12 21:58:00
5:58 PM,55.2,32.9,43,30.14,10.0,South,2.3,-,N/A,,Clear,190,2014-01-12 22:58:00
6:58 PM,48.9,35.4,60,30.16,10.0,Calm,Calm,-,N/A,,Clear,0,2014-01-12 23:58:00
7:58 PM,44.4,35.4,71,30.17,10.0,Calm,Calm,-,N/A,,Clear,0,2014-01-13 00:58:00
8:58 PM,43.2,35.6,75,30.17,10.0,Calm,Calm,-,N/A,,Clear,0,2014-01-13 01:58:00
9:56 PM,41.7,35.2,78,30.17,10.0,Calm,Calm,-,N/A,,Clear,0,2014-01-13 02:56:00
10:57 PM,39.6,35.2,85,30.18,10.0,Calm,Calm,-,N/A,,Clear,0,2014-01-13 03:57:00
11:58 PM,37.4,34.7,90,30.15,10.0,NNW,2.3,-,N/A,,Clear,340,2014-01-13 04:58:00